When you browse on this site, cookies collect data to enhance your experience and personalize the content and advertising you see.
Visit our Privacy Policy to learn more. By continuing to use the site, you agree to this use of cookies and data.
  • In Österreich
  • Länderverzeichnis
  • Für 7 Tage
  • Wassertemperatur
  • Wetterkarte
  • News
  • Widgets
  • user-avatar
    Anmelden

    Stündliche Wetter Sewan

    Heute, 29 Februar, Samstag

    Zeit Temperatur Niederschläge Wind Luftdruck Luftfeuchtigkeit
    00:00 -1°C° 0 mm 2 m/S 637 mmHg 65%
    01:00 -1°C° 0 mm 2 m/S 636 mmHg 65%
    02:00 -1°C° 0 mm 2 m/S 636 mmHg 66%
    03:00 +1°C° 0 mm 1 m/S 636 mmHg 64%
    04:00 +1°C° 0 mm 1 m/S 636 mmHg 64%
    05:00 +1°C° 0 mm 1 m/S 636 mmHg 65%
    06:00 +1°C° 0 mm 1 m/S 636 mmHg 65%
    07:00 +2°C° 0 mm 1 m/S 637 mmHg 66%
    08:00 +3°C° 0 mm 1 m/S 637 mmHg 66%
    09:00 +5°C° 0 mm 1 m/S 637 mmHg 69%
    10:00 +5°C° 0 mm 1 m/S 637 mmHg 70%
    11:00 +6°C° 0 mm 1 m/S 636 mmHg 71%
    12:00 +7°C° 0 mm 1 m/S 636 mmHg 73%
    13:00 +7°C° 0 mm 1 m/S 636 mmHg 73%
    14:00 +7°C° 0 mm 1 m/S 635 mmHg 73%
    15:00 +7°C° 0 mm 1 m/S 635 mmHg 73%
    16:00 +6°C° 0.1 mm 1 m/S 635 mmHg 72%
    17:00 +5°C° 0.1 mm 1 m/S 635 mmHg 71%
    18:00 +4°C° 0.1 mm 2 m/S 635 mmHg 70%
    19:00 +3°C° 0.2 mm 2 m/S 635 mmHg 74%
    20:00 +3°C° 0.2 mm 2 m/S 635 mmHg 78%
    21:00 +3°C° 0.2 mm 2 m/S 634 mmHg 82%
    22:00 +3°C° 0.2 mm 2 m/S 634 mmHg 83%
    23:00 +3°C° 0.2 mm 2 m/S 634 mmHg 84%

    Morgen, 1 März, Sonntag

    Zeit Temperatur Niederschläge Wind Luftdruck Luftfeuchtigkeit
    00:00 +3°C° 0.2 mm 2 m/S 634 mmHg 85%
    01:00 +3°C° 0.6 mm 2 m/S 634 mmHg 87%
    02:00 +3°C° 0.6 mm 2 m/S 634 mmHg 89%
    03:00 +3°C° 0.6 mm 2 m/S 634 mmHg 91%
    04:00 +3°C° 0.5 mm 2 m/S 634 mmHg 91%
    05:00 +3°C° 0.5 mm 2 m/S 634 mmHg 92%
    06:00 +3°C° 0.5 mm 2 m/S 634 mmHg 93%
    07:00 +3°C° 0.1 mm 2 m/S 635 mmHg 92%
    08:00 +4°C° 0.1 mm 1 m/S 635 mmHg 91%
    09:00 +5°C° 0.1 mm 1 m/S 635 mmHg 90%
    10:00 +5°C° 0.1 mm 1 m/S 635 mmHg 90%
    11:00 +5°C° 0.1 mm 1 m/S 636 mmHg 89%
    12:00 +5°C° 0.1 mm 1 m/S 636 mmHg 89%
    13:00 +5°C° 0.1 mm 1 m/S 635 mmHg 88%
    14:00 +5°C° 0.1 mm 1 m/S 635 mmHg 86%
    15:00 +6°C° 0.1 mm 1 m/S 635 mmHg 84%
    16:00 +5°C° 0.1 mm 1 m/S 635 mmHg 83%
    17:00 +5°C° 0.1 mm 1 m/S 636 mmHg 82%
    18:00 +4°C° 0.1 mm 1 m/S 636 mmHg 81%
    19:00 +3°C° 0 mm 2 m/S 636 mmHg 81%
    20:00 +2°C° 0 mm 2 m/S 637 mmHg 81%
    21:00 +2°C° 0 mm 2 m/S 637 mmHg 81%
    22:00 +1°C° 0 mm 2 m/S 637 mmHg 80%
    23:00 +1°C° 0 mm 2 m/S 637 mmHg 80%

    übermorgen, 2 März, Montag

    Zeit Temperatur Niederschläge Wind Luftdruck Luftfeuchtigkeit
    00:00 +1°C° 0 mm 2 m/S 637 mmHg 80%
    01:00 -1°C° 0 mm 2 m/S 638 mmHg 79%
    02:00 -1°C° 0 mm 2 m/S 638 mmHg 79%
    03:00 -1°C° 0 mm 2 m/S 638 mmHg 78%
    04:00 -1°C° 0 mm 2 m/S 638 mmHg 78%
    05:00 -2°C° 0 mm 2 m/S 638 mmHg 78%
    06:00 -2°C° 0 mm 2 m/S 638 mmHg 78%
    07:00 -1°C° 0 mm 2 m/S 639 mmHg 76%
    08:00 +1°C° 0 mm 2 m/S 639 mmHg 75%
    09:00 +3°C° 0 mm 1 m/S 640 mmHg 74%
    10:00 +4°C° 0 mm 1 m/S 640 mmHg 74%
    11:00 +4°C° 0 mm 1 m/S 640 mmHg 74%
    12:00 +5°C° 0 mm 1 m/S 640 mmHg 74%
    13:00 +5°C° 0 mm 1 m/S 640 mmHg 74%
    14:00 +6°C° 0 mm 1 m/S 640 mmHg 74%
    15:00 +6°C° 0 mm 1 m/S 640 mmHg 74%
    16:00 +5°C° 0 mm 1 m/S 640 mmHg 74%
    17:00 +4°C° 0 mm 1 m/S 640 mmHg 74%
    18:00 +3°C° 0 mm 1 m/S 640 mmHg 75%
    19:00 +3°C° 0 mm 1 m/S 640 mmHg 75%
    20:00 +2°C° 0 mm 1 m/S 640 mmHg 75%
    21:00 +2°C° 0 mm 1 m/S 640 mmHg 74%
    22:00 +1°C° 0 mm 1 m/S 641 mmHg 74%
    23:00 +1°C° 0 mm 1 m/S 641 mmHg 74%

    3 März, Dienstag

    Zeit Temperatur Niederschläge Wind Luftdruck Luftfeuchtigkeit
    00:00 +1°C° 0 mm 1 m/S 641 mmHg 74%
    01:00 +1°C° 0 mm 1 m/S 641 mmHg 75%
    02:00 0°C° 0 mm 1 m/S 641 mmHg 75%
    03:00 0°C° 0 mm 1 m/S 641 mmHg 75%
    04:00 0°C° 0 mm 1 m/S 641 mmHg 75%
    05:00 0°C° 0 mm 1 m/S 641 mmHg 75%
    06:00 0°C° 0 mm 1 m/S 641 mmHg 76%
    07:00 +1°C° 0 mm 1 m/S 642 mmHg 74%
    08:00 +2°C° 0 mm 1 m/S 642 mmHg 73%
    09:00 +3°C° 0 mm 1 m/S 643 mmHg 71%
    10:00 +4°C° 0 mm 1 m/S 643 mmHg 72%
    11:00 +5°C° 0 mm 1 m/S 643 mmHg 73%
    12:00 +6°C° 0 mm 1 m/S 642 mmHg 74%
    13:00 +6°C° 0 mm 1 m/S 642 mmHg 73%
    14:00 +6°C° 0 mm 1 m/S 642 mmHg 73%
    15:00 +6°C° 0 mm 0 m/S 642 mmHg 72%
    16:00 +6°C° 0 mm 1 m/S 642 mmHg 73%
    17:00 +5°C° 0 mm 1 m/S 642 mmHg 73%
    18:00 +4°C° 0 mm 1 m/S 641 mmHg 73%
    19:00 +4°C° 0 mm 1 m/S 642 mmHg 71%
    20:00 +3°C° 0 mm 1 m/S 642 mmHg 68%
    21:00 +3°C° 0 mm 1 m/S 642 mmHg 65%
    22:00 +3°C° 0 mm 1 m/S 642 mmHg 63%
    23:00 +2°C° 0 mm 1 m/S 642 mmHg 61%

    4 März, Mittwoch

    Zeit Temperatur Niederschläge Wind Luftdruck Luftfeuchtigkeit
    00:00 +2°C° 0 mm 1 m/S 642 mmHg 59%
    01:00 +2°C° 0 mm 1 m/S 642 mmHg 58%
    02:00 +1°C° 0 mm 1 m/S 642 mmHg 57%
    03:00 +1°C° 0 mm 1 m/S 642 mmHg 56%
    04:00 +1°C° 0 mm 1 m/S 642 mmHg 56%
    05:00 +1°C° 0 mm 1 m/S 642 mmHg 56%
    06:00 +1°C° 0 mm 1 m/S 642 mmHg 56%
    07:00 +2°C° 0 mm 1 m/S 643 mmHg 56%
    08:00 +2°C° 0 mm 0 m/S 643 mmHg 56%
    09:00 +4°C° 0 mm 0 m/S 644 mmHg 57%
    10:00 +4°C° 0 mm 0 m/S 643 mmHg 59%
    11:00 +6°C° 0 mm 1 m/S 643 mmHg 61%
    12:00 +7°C° 0 mm 1 m/S 643 mmHg 63%
    13:00 +7°C° 0 mm 1 m/S 643 mmHg 62%
    14:00 +8°C° 0 mm 1 m/S 643 mmHg 62%
    15:00 +7°C° 0 mm 0 m/S 642 mmHg 61%
    16:00 +7°C° 0 mm 1 m/S 642 mmHg 61%
    17:00 +6°C° 0 mm 1 m/S 642 mmHg 60%
    18:00 +5°C° 0 mm 1 m/S 641 mmHg 59%
    19:00 +4°C° 0 mm 1 m/S 642 mmHg 56%
    20:00 +4°C° 0 mm 1 m/S 642 mmHg 54%
    21:00 +4°C° 0 mm 1 m/S 642 mmHg 51%
    22:00 +3°C° 0 mm 1 m/S 642 mmHg 50%
    23:00 +3°C° 0 mm 1 m/S 642 mmHg 50%

    5 März, Donnerstag

    Zeit Temperatur Niederschläge Wind Luftdruck Luftfeuchtigkeit
    00:00 +3°C° 0 mm 1 m/S 642 mmHg 50%
    01:00 +2°C° 0 mm 2 m/S 642 mmHg 51%
    02:00 +1°C° 0 mm 2 m/S 641 mmHg 52%
    03:00 +1°C° 0 mm 2 m/S 641 mmHg 52%
    04:00 +1°C° 0 mm 2 m/S 641 mmHg 53%
    05:00 +1°C° 0 mm 2 m/S 641 mmHg 53%
    06:00 +1°C° 0 mm 2 m/S 641 mmHg 53%
    07:00 +2°C° 0 mm 2 m/S 641 mmHg 54%
    08:00 +4°C° 0 mm 1 m/S 641 mmHg 54%
    09:00 +5°C° 0 mm 1 m/S 641 mmHg 55%
    10:00 +6°C° 0 mm 1 m/S 641 mmHg 55%
    11:00 +7°C° 0 mm 1 m/S 641 mmHg 56%
    12:00 +8°C° 0 mm 1 m/S 641 mmHg 57%
    13:00 +8°C° 0 mm 1 m/S 640 mmHg 56%
    14:00 +9°C° 0 mm 1 m/S 640 mmHg 55%
    15:00 +9°C° 0 mm 1 m/S 640 mmHg 54%
    16:00 +8°C° 0 mm 1 m/S 639 mmHg 52%
    17:00 +7°C° 0 mm 1 m/S 639 mmHg 51%
    18:00 +5°C° 0 mm 2 m/S 639 mmHg 49%
    19:00 +5°C° 0 mm 2 m/S 639 mmHg 48%
    20:00 +5°C° 0 mm 2 m/S 639 mmHg 47%
    21:00 +4°C° 0 mm 2 m/S 639 mmHg 46%
    22:00 +4°C° 0 mm 2 m/S 639 mmHg 47%
    23:00 +4°C° 0 mm 2 m/S 639 mmHg 47%
    Mehr zeigen